DW1541 Weather Reports


Display with metric or nautical units.
time (UTC)temp
F
wind
direction
speed
MPH
gust
MPH
rain 1hr
in
rain 24hr
in
rain mn
in
humidity
%
barometer
mb
20200226080352 42 218 0.0 0.0 0.00 0.01 0.00 94 1031.2
20200226075411 42 218 0.0 0.0 0.00 0.01 0.01 94 1031.2
20200226074343 42 218 0.0 0.0 0.00 0.01 0.01 94 1031.2
20200226073352 42 218 0.0 0.0 0.00 0.01 0.01 94 1031.2
20200226072356 42 219 0.0 0.0 0.00 0.01 0.01 93 1031.2
20200226071343 42 130 0.0 0.0 0.00 0.01 0.01 93 1031.2
20200226070402 42 130 0.0 0.0 0.00 0.01 0.01 94 1031.2
20200226065402 42 141 0.0 0.0 0.00 0.01 0.01 94 1031.2
20200226064340 42 140 0.0 0.0 0.00 0.01 0.01 94 1031.2
20200226063345 42 141 0.0 0.0 0.00 0.01 0.01 94 1031.2
20200226062401 42 140 0.0 0.0 0.00 0.01 0.01 93 1031.2
20200226061404 42 141 0.0 0.0 0.00 0.01 0.01 93 1031.2
20200226060347 42 141 0.0 0.0 0.00 0.01 0.01 93 1031.2
20200226055334 42 141 0.0 0.0 0.00 0.01 0.01 93 1031.2
20200226054320 42 140 0.0 0.0 0.00 0.01 0.01 93 1031.2
20200226053323 42 141 0.0 0.0 0.00 0.01 0.01 93 1031.2
20200226052331 42 140 0.0 0.0 0.00 0.01 0.01 93 1031.2
20200226051320 42 140 0.0 0.0 0.00 0.01 0.01 93 1031.2
20200226050257 42 141 0.0 0.0 0.00 0.01 0.01 93 1031.2
20200226045247 42 141 0.0 0.0 0.00 0.01 0.01 93 1031.2
20200226044229 42 141 0.0 0.0 0.00 0.01 0.01 93 1031.2
20200226043203 42 140 0.0 0.0 0.00 0.01 0.01 92 1031.2
20200226042138 42 141 0.0 0.0 0.00 0.01 0.01 92 1031.2
20200226041115 43 141 0.0 0.0 0.00 0.01 0.01 92 1031.2
20200226040133 43 141 0.0 0.0 0.00 0.01 0.01 91 1031.2
20200226035111 43 140 0.0 0.0 0.00 0.01 0.01 91 1031.2
20200226034100 43 17 0.0 0.0 0.00 0.01 0.01 90 1031.2
20200226033046 43 215 0.0 0.0 0.00 0.01 0.01 89 1031.2
20200226032049 44 215 0.0 0.0 0.00 0.01 0.01 87 1031.2
20200226031103 45 244 0.0 0.0 0.00 0.01 0.01 82 1031.2
20200226030051 45 244 0.0 0.0 0.00 0.00 0.00 79 1031.2
20200226025029 45 259 0.0 0.0 0.00 0.00 0.00 78 1031.2
20200226024025 46 259 0.0 0.0 0.00 0.00 0.00 77 1031.2
20200226022951 46 259 0.0 0.0 0.00 0.00 0.00 78 1031.2
20200226022004 46 259 0.0 0.0 0.00 0.00 0.00 75 1031.2
20200226020939 46 259 0.0 0.0 0.00 0.00 0.00 75 1031.6
20200226020001 47 259 0.0 0.0 0.00 0.00 0.00 74 1031.6
20200226015001 47 259 0.0 0.0 0.00 0.00 0.00 76 1031.6
20200226014009 48 259 0.0 0.0 0.00 0.00 0.00 74 1031.6
20200226012958 48 259 0.0 0.0 0.00 0.00 0.00 73 1031.6
20200226012018 48 259 0.0 0.0 0.00 0.00 0.00 73 1031.6
20200226011001 49 259 0.0 0.0 0.00 0.00 0.00 71 1031.6
20200226005959 49 259 0.0 0.0 0.00 0.00 0.00 66 1031.6
20200226005002 49 259 0.0 0.0 0.00 0.00 0.00 66 1031.6
20200226004017 49 259 0.0 0.0 0.00 0.00 0.00 68 1031.6
20200226002953 49 259 0.0 0.0 0.00 0.00 0.00 66 1031.6
20200226001949 49 259 0.0 0.0 0.00 0.00 0.00 65 1031.6
20200226001008 49 259 0.0 0.0 0.00 0.00 0.00 64 1031.6
20200225235934 50 259 0.0 0.0 0.00 0.00 0.00 63 1031.6
20200225234950 50 259 0.0 0.0 0.00 0.00 0.00 63 1031.8
20200225233937 50 259 0.0 0.0 0.00 0.00 0.00 62 1015.7
20200225232911 51 259 0.0 0.0 0.00 0.00 0.00 60 1015.7
20200225231908 51 99 0.0 0.0 0.00 0.00 0.00 58 1015.7
20200225230902 51 156 0.0 0.0 0.00 0.00 0.00 59 1015.7
20200225225912 51 119 0.0 0.0 0.00 0.00 0.00 59 1015.7
20200225224908 51 213 0.0 0.0 0.00 0.00 0.00 60 1015.7
20200225223900 51 271 0.0 0.0 0.00 0.00 0.00 59 1015.7
20200225222838 51 215 0.0 0.0 0.00 0.00 0.00 61 1015.7
20200225221853 50 224 0.0 0.0 0.00 0.00 0.00 62 1015.7
20200225220829 49 157 0.0 1.0 0.00 0.00 0.00 61 1015.7
20200225215839 50 250 0.0 0.0 0.00 0.00 0.00 63 1015.7
20200225214845 49 232 0.0 1.0 0.00 0.00 0.00 61 1015.7
20200225213821 49 192 0.0 0.0 0.00 0.00 0.00 63 1015.7
20200225212840 48 107 0.0 0.0 0.00 0.00 0.00 65 1015.7
20200225211824 48 274 0.0 0.0 0.00 0.00 0.00 64 1015.7
20200225210835 48 259 0.0 1.0 0.00 0.00 0.00 64 1015.7
20200225205837 48 292 0.0 0.0 0.00 0.00 0.00 63 1015.7
20200225204823 48 297 0.0 0.0 0.00 0.00 0.00 65 1015.7
20200225203822 47 81 0.0 0.0 0.00 0.00 0.00 65 1015.7
20200225202753 47 69 0.0 0.0 0.00 0.00 0.00 67 1015.7
20200225201734 47 69 0.0 0.0 0.00 0.00 0.00 68 1015.7
20200225200720 47 57 0.0 0.0 0.00 0.00 0.00 67 1015.7
20200225195647 46 275 0.0 0.0 0.00 0.00 0.00 69 1015.7
20200225194356 47 71 0.0 2.0 0.00 0.00 0.00 68 1015.7
20200225193322 46 82 0.0 0.0 0.00 0.00 0.00 73 1015.7
20200225192302 45 325 0.0 0.0 0.00 0.00 0.00 74 1015.7
20200225191306 44 56 0.0 1.0 0.00 0.00 0.00 77 1015.7
20200225190315 43 178 0.0 0.0 0.00 0.00 0.00 74 1015.7
20200225185255 43 254 0.0 1.0 0.00 0.00 0.00 75 1015.7
20200225184244 43 262 0.0 1.0 0.00 0.00 0.00 74 1015.7
20200225183303 43 279 0.0 0.0 0.00 0.00 0.00 74 1015.7
20200225182255 42 263 0.0 0.0 0.00 0.00 0.00 76 1015.7
20200225181310 41 80 0.0 0.0 0.00 0.00 0.00 78 1015.7
20200225180326 41 52 0.0 1.0 0.00 0.00 0.00 78 1015.7
20200225175256 40 219 0.0 0.0 0.00 0.00 0.00 81 1015.7
20200225174254 39 154 0.0 0.0 0.00 0.00 0.00 84 1015.7
20200225173220 38 124 0.0 0.0 0.00 0.00 0.00 84 1015.7
20200225172219 37 130 0.0 0.0 0.00 0.00 0.00 88 1015.7
20200225171206 36 130 0.0 0.0 0.00 0.00 0.00 89 1015.7
20200225170228 36 130 0.0 0.0 0.00 0.00 0.00 90 1015.7
20200225165159 35 130 0.0 0.0 0.00 0.00 0.00 91 1015.7
20200225164202 35 130 0.0 0.0 0.00 0.00 0.00 92 1015.7
20200225163205 34 130 0.0 0.0 0.00 0.00 0.00 94 1015.7
20200225162138 33 130 0.0 0.0 0.00 0.00 0.00 95 1015.7
20200225161139 32 130 0.0 0.0 0.00 0.00 0.00 95 1015.7
20200225160130 32 130 0.0 0.0 0.00 0.00 0.00 95 1015.7
20200225155102 31 130 0.0 0.0 0.00 0.00 0.00 94 1015.7
20200225154111 31 130 0.0 0.0 0.00 0.00 0.00 94 1015.7
20200225153128 31 130 0.0 0.0 0.00 0.00 0.00 94 1015.7
20200225152057 31 130 0.0 0.0 0.00 0.00 0.00 94 1015.7
20200225151036 31 130 0.0 0.0 0.00 0.00 0.00 94 1015.7
20200225150056 31 130 0.0 0.0 0.00 0.00 0.00 94 1015.7
20200225145113 31 130 0.0 0.0 0.00 0.00 0.00 94 1015.7
20200225144135 31 130 0.0 0.0 0.00 0.00 0.00 94 1015.7
20200225143131 31 130 0.0 0.0 0.00 0.00 0.00 94 1015.7
20200225142153 31 130 0.0 0.0 0.00 0.00 0.00 94 1015.7
20200225141202 31 142 0.0 0.0 0.00 0.00 0.00 95 1015.7
20200225140233 30 128 0.0 0.0 0.00 0.00 0.00 94 1015.7
20200225135222 30 180 0.0 0.0 0.00 0.00 0.00 94 1015.7
20200225134222 30 180 0.0 0.0 0.00 0.00 0.00 94 1015.7
20200225133159 30 180 0.0 0.0 0.00 0.00 0.00 94 1015.7
20200225132203 30 180 0.0 0.0 0.00 0.00 0.00 94 1015.7
20200225131148 31 180 0.0 0.0 0.00 0.00 0.00 94 1015.7
20200225130139 31 180 0.0 0.0 0.00 0.00 0.00 94 1015.7
20200225125132 31 180 0.0 0.0 0.00 0.00 0.00 94 1015.7
20200225124106 31 180 0.0 0.0 0.00 0.00 0.00 94 1015.7
20200225123125 31 180 0.0 0.0 0.00 0.00 0.00 94 1015.7
20200225122131 31 180 0.0 0.0 0.00 0.00 0.00 93 1015.7
20200225121105 31 180 0.0 0.0 0.00 0.00 0.00 93 1015.7
20200225120043 31 180 0.0 0.0 0.00 0.00 0.00 94 1015.7
20200225115043 31 180 0.0 0.0 0.00 0.00 0.00 94 1015.7
20200225114017 31 180 0.0 0.0 0.00 0.00 0.00 93 1015.7
20200225113022 31 180 0.0 0.0 0.00 0.00 0.00 93 1015.7
20200225112006 31 180 0.0 0.0 0.00 0.00 0.00 92 1015.7
20200225111002 32 180 0.0 0.0 0.00 0.00 0.00 92 1015.7
20200225110019 32 180 0.0 0.0 0.00 0.00 0.00 92 1015.7
20200225105040 32 120 0.0 0.0 0.00 0.00 0.00 92 1015.7
20200225104030 32 120 0.0 0.0 0.00 0.00 0.00 92 1015.7
20200225103028 32 120 0.0 0.0 0.00 0.00 0.00 92 1015.7
20200225101957 33 120 0.0 0.0 0.00 0.00 0.00 92 1015.7
20200225101007 33 120 0.0 0.0 0.00 0.00 0.00 91 1015.7
20200225100029 33 120 0.0 0.0 0.00 0.00 0.00 91 1015.7
20200225095050 33 120 0.0 0.0 0.00 0.00 0.00 91 1015.7
20200225094013 34 102 0.0 0.0 0.00 0.00 0.00 91 1015.7
20200225092946 34 102 0.0 0.0 0.00 0.00 0.00 91 1015.7
20200225091936 34 102 0.0 0.0 0.00 0.00 0.00 91 1015.7
20200225090955 34 101 0.0 0.0 0.00 0.00 0.00 91 1015.7
20200225090013 34 101 0.0 0.0 0.00 0.00 0.00 90 1015.7
20200225085014 35 101 0.0 0.0 0.00 0.00 0.00 90 1015.7
20200225084017 35 101 0.0 0.0 0.00 0.00 0.00 90 1015.7
20200225083010 36 101 0.0 0.0 0.00 0.00 0.00 89 1015.7
20200225081946 36 101 0.0 0.0 0.00 0.00 0.00 89 1015.7
20200225080953 36 101 0.0 0.0 0.00 0.00 0.00 90 1015.7